星链-6277 (STARLINK-6277 )

导读

STARLINK-6277是美国太空探索技术公司SpaceX于2023年5月4日发射的星链(Starlink)低轨互联网卫星,归属于星链卫星互联网星座,任务是为全球提供高速宽带互联网服务。星链星座通过大规模组网实现全球覆盖,该卫星进入近地轨道后,持续推进星座部署,提升星链系统网络覆盖能力与服务稳定性,目前已在轨运行近3年。

基本信息
目录编号:
56399
目录名称:
STARLINK-6277
国际标识:
2023-061AB
轨道中心:
EARTH
卫星名称:
星链-6277
卫星全名:
星链-6277 (STARLINK-6277 )
卫星状态:
在轨 (已飞行1137 天)
发射日期:
2023-05-04 UTC
国别 :
美国 (US)
星等 :
--
轨道信息
数据来源 国际轨道数据
星历时间: 2026-06-14T13:47:45+0800
14小时前
查看轨道信息
半长轴: 6861.205km
偏心率: 0.000096
轨道倾角: 43.005°
近地点辐角 270.947°
升交点赤经 1.542°
平近点角 89.127°
近地点: 482.409km
远地点: 483.727km
周期: 94.267分钟
每日圈数: 15.27574
详细信息
固有亮度:
5
最大亮度:
2.5
卫星平台:
Starlink v1.5
覆盖范围:
全球
运营商:
太空探索技术公司
运营商所在国:
美国
制造商(研发单位):
太空探索技术公司
制造商所在国:
美国
使用方式:
暂无
卫星简介
星链(Starlink)计划是由太空探索技术公司(SpaceX)提出的一个巨型低轨卫星互联网星座项目,计划在2019年至2024年间在太空搭建由约1.2万颗卫星组成的“星链”网络,其中1584颗将部署在地球上空550千米处的近地轨道,并从2020年开始工作。该卫星仍在工作。
2D轨道图
3D轨道图
轨道高度分析图
轨道倾角分析图
轨道综合分析图
查看轨道综合分析图